owner,sensor,date,latitude,longitude,vertical_datum,sea_water_practical_salinity,qcFlag 
DISL,ioos:station:DISL:DISL:1,2016-07-01T00:00:00Z,30.2513,-88.0778,1.863,14.73,1111122 
DISL,ioos:station:DISL:DISL:1,2016-07-01T00:30:00Z,30.2513,-88.0778,1.888,14.52,1111122 
DISL,ioos:station:DISL:DISL:1,2016-07-01T01:00:00Z,30.2513,-88.0778,1.91,14.14,1111122 
DISL,ioos:station:DISL:DISL:1,2016-07-01T01:30:00Z,30.2513,-88.0778,1.903,14.45,1111122 
DISL,ioos:station:DISL:DISL:1,2016-07-01T02:00:00Z,30.2513,-88.0778,1.921,15.11,1111122 
DISL,ioos:station:DISL:DISL:1,2016-07-01T02:30:00Z,30.2513,-88.0778,1.928,15.56,1111122 
DISL,ioos:station:DISL:DISL:1,2016-07-01T03:00:00Z,30.2513,-88.0778,1.954,15.67,1111122 
DISL,ioos:station:DISL:DISL:1,2016-07-01T03:30:00Z,30.2513,-88.0778,1.963,15.53,1111122 
DISL,ioos:station:DISL:DISL:1,2016-07-01T04:00:00Z,30.2513,-88.0778,1.987,16.43,1111122 
DISL,ioos:station:DISL:DISL:1,2016-07-01T04:30:00Z,30.2513,-88.0778,1.989,21.23,1111122 
DISL,ioos:station:DISL:DISL:1,2016-07-01T05:00:00Z,30.2513,-88.0778,2.021,21.51,1111122 
DISL,ioos:station:DISL:DISL:1,2016-07-01T05:30:00Z,30.2513,-88.0778,2.025,20.95,1111122 
DISL,ioos:station:DISL:DISL:1,2016-07-01T06:00:00Z,30.2513,-88.0778,2.057,21.24,1111122 
DISL,ioos:station:DISL:DISL:1,2016-07-01T06:30:00Z,30.2513,-88.0778,2.071,23.85,1111122 
DISL,ioos:station:DISL:DISL:1,2016-07-01T07:00:00Z,30.2513,-88.0778,2.096,24.1,1111122 
DISL,ioos:station:DISL:DISL:1,2016-07-01T07:30:00Z,30.2513,-88.0778,2.094,22.96,1111122 
DISL,ioos:station:DISL:DISL:1,2016-07-01T08:00:00Z,30.2513,-88.0778,2.152,24.58,1111122 
DISL,ioos:station:DISL:DISL:1,2016-07-01T08:30:00Z,30.2513,-88.0778,2.165,24.74,1111122 
DISL,ioos:station:DISL:DISL:1,2016-07-01T09:00:00Z,30.2513,-88.0778,2.2,25.66,1111122 
DISL,ioos:station:DISL:DISL:1,2016-07-01T09:30:00Z,30.2513,-88.0778,2.23,24.42,1111122 
DISL,ioos:station:DISL:DISL:1,2016-07-01T10:00:00Z,30.2513,-88.0778,2.236,24.56,1111122 
DISL,ioos:station:DISL:DISL:1,2016-07-01T10:30:00Z,30.2513,-88.0778,2.252,22.78,1111122 
DISL,ioos:station:DISL:DISL:1,2016-07-01T11:00:00Z,30.2513,-88.0778,2.411,23.6,1111122 
DISL,ioos:station:DISL:DISL:1,2016-07-01T11:30:00Z,30.2513,-88.0778,2.269,25.75,1111122 
DISL,ioos:station:DISL:DISL:1,2016-07-01T12:00:00Z,30.2513,-88.0778,2.284,18.51,1111122 
DISL,ioos:station:DISL:DISL:1,2016-07-01T12:30:00Z,30.2513,-88.0778,2.311,17.13,1111122 
DISL,ioos:station:DISL:DISL:1,2016-07-01T13:00:00Z,30.2513,-88.0778,2.312,16.85,1111122 
DISL,ioos:station:DISL:DISL:1,2016-07-01T13:30:00Z,30.2513,-88.0778,2.31,16.76,1111122 
DISL,ioos:station:DISL:DISL:1,2016-07-01T14:00:00Z,30.2513,-88.0778,2.303,16.8,1111122 
DISL,ioos:station:DISL:DISL:1,2016-07-01T14:30:00Z,30.2513,-88.0778,2.282,15.71,1111122 
DISL,ioos:station:DISL:DISL:1,2016-07-01T15:00:00Z,30.2513,-88.0778,2.259,17.02,1111122 
DISL,ioos:station:DISL:DISL:1,2016-07-01T15:30:00Z,30.2513,-88.0778,2.237,16.29,1111122 
DISL,ioos:station:DISL:DISL:1,2016-07-01T16:00:00Z,30.2513,-88.0778,2.214,16.99,1111122 
DISL,ioos:station:DISL:DISL:1,2016-07-01T16:30:00Z,30.2513,-88.0778,2.169,17.07,1111122 
DISL,ioos:station:DISL:DISL:1,2016-07-01T17:00:00Z,30.2513,-88.0778,2.137,16.81,1111122 
DISL,ioos:station:DISL:DISL:1,2016-07-01T17:30:00Z,30.2513,-88.0778,2.105,16.84,1111122 
DISL,ioos:station:DISL:DISL:1,2016-07-01T18:00:00Z,30.2513,-88.0778,2.057,17.29,1111122 
DISL,ioos:station:DISL:DISL:1,2016-07-01T18:30:00Z,30.2513,-88.0778,2.013,16.2,1111122 
DISL,ioos:station:DISL:DISL:1,2016-07-01T19:00:00Z,30.2513,-88.0778,2.012,14.97,1111122 
DISL,ioos:station:DISL:DISL:1,2016-07-01T19:30:00Z,30.2513,-88.0778,1.992,14.52,1111122 
DISL,ioos:station:DISL:DISL:1,2016-07-01T20:00:00Z,30.2513,-88.0778,1.969,14.68,1111122 
DISL,ioos:station:DISL:DISL:1,2016-07-01T20:30:00Z,30.2513,-88.0778,1.922,14.24,1111122 
DISL,ioos:station:DISL:DISL:1,2016-07-01T21:00:00Z,30.2513,-88.0778,1.893,14.1,1111122 
DISL,ioos:station:DISL:DISL:1,2016-07-01T21:30:00Z,30.2513,-88.0778,1.866,13.99,1111122 
DISL,ioos:station:DISL:DISL:1,2016-07-01T22:00:00Z,30.2513,-88.0778,1.823,13.92,1111122 
DISL,ioos:station:DISL:DISL:1,2016-07-01T22:30:00Z,30.2513,-88.0778,1.833,14.05,1111122 
DISL,ioos:station:DISL:DISL:1,2016-07-01T23:00:00Z,30.2513,-88.0778,1.788,14.31,1111122 
DISL,ioos:station:DISL:DISL:1,2016-07-01T23:30:00Z,30.2513,-88.0778,1.774,14.23,1111122 
DISL,ioos:station:DISL:DISL:1,2016-07-02T00:00:00Z,30.2513,-88.0778,1.763,13.93,1111122 
DISL,ioos:station:DISL:DISL:1,2016-07-02T00:30:00Z,30.2513,-88.0778,1.759,13.81,1111122 
DISL,ioos:station:DISL:DISL:1,2016-07-02T01:00:00Z,30.2513,-88.0778,1.763,13.84,1111122 
DISL,ioos:station:DISL:DISL:1,2016-07-02T01:30:00Z,30.2513,-88.0778,1.778,13.79,1111122 
DISL,ioos:station:DISL:DISL:1,2016-07-02T02:00:00Z,30.2513,-88.0778,1.782,14.9,1111122 
DISL,ioos:station:DISL:DISL:1,2016-07-02T02:30:00Z,30.2513,-88.0778,1.797,14.82,1111122 
DISL,ioos:station:DISL:DISL:1,2016-07-02T03:00:00Z,30.2513,-88.0778,1.819,14.79,1111122 
DISL,ioos:station:DISL:DISL:1,2016-07-02T03:30:00Z,30.2513,-88.0778,1.84,14.92,1111122 
DISL,ioos:station:DISL:DISL:1,2016-07-02T04:00:00Z,30.2513,-88.0778,1.85,14.62,1111122 
DISL,ioos:station:DISL:DISL:1,2016-07-02T04:30:00Z,30.2513,-88.0778,1.866,14.56,1111122 
DISL,ioos:station:DISL:DISL:1,2016-07-02T05:00:00Z,30.2513,-88.0778,1.884,14.94,1111122 
DISL,ioos:station:DISL:DISL:1,2016-07-02T05:30:00Z,30.2513,-88.0778,1.912,15.24,1111122 
DISL,ioos:station:DISL:DISL:1,2016-07-02T06:00:00Z,30.2513,-88.0778,1.93,15.27,1111122 
DISL,ioos:station:DISL:DISL:1,2016-07-02T06:30:00Z,30.2513,-88.0778,1.962,16.23,1111122 
DISL,ioos:station:DISL:DISL:1,2016-07-02T07:00:00Z,30.2513,-88.0778,1.993,18.06,1111122 
DISL,ioos:station:DISL:DISL:1,2016-07-02T07:30:00Z,30.2513,-88.0778,2.022,19.3,1111122 
DISL,ioos:station:DISL:DISL:1,2016-07-02T08:00:00Z,30.2513,-88.0778,2.036,19.37,1111122 
DISL,ioos:station:DISL:DISL:1,2016-07-02T08:30:00Z,30.2513,-88.0778,2.073,20.24,1111122 
DISL,ioos:station:DISL:DISL:1,2016-07-02T09:00:00Z,30.2513,-88.0778,2.104,22.35,1111122 
DISL,ioos:station:DISL:DISL:1,2016-07-02T09:30:00Z,30.2513,-88.0778,2.141,20.61,1111122 
DISL,ioos:station:DISL:DISL:1,2016-07-02T10:00:00Z,30.2513,-88.0778,2.175,20.34,1111122 
DISL,ioos:station:DISL:DISL:1,2016-07-02T10:30:00Z,30.2513,-88.0778,2.2,20.39,1111122 
DISL,ioos:station:DISL:DISL:1,2016-07-02T11:00:00Z,30.2513,-88.0778,2.23,19.86,1111122 
DISL,ioos:station:DISL:DISL:1,2016-07-02T11:30:00Z,30.2513,-88.0778,2.242,17.92,1111122 
DISL,ioos:station:DISL:DISL:1,2016-07-02T12:00:00Z,30.2513,-88.0778,2.28,17.8,1111122 
DISL,ioos:station:DISL:DISL:1,2016-07-02T12:30:00Z,30.2513,-88.0778,2.282,18.41,1111122 
DISL,ioos:station:DISL:DISL:1,2016-07-02T13:00:00Z,30.2513,-88.0778,2.298,18.83,1111122 
DISL,ioos:station:DISL:DISL:1,2016-07-02T13:30:00Z,30.2513,-88.0778,2.296,17.5,1111122 
DISL,ioos:station:DISL:DISL:1,2016-07-02T14:00:00Z,30.2513,-88.0778,2.309,17.41,1111122 
DISL,ioos:station:DISL:DISL:1,2016-07-02T14:30:00Z,30.2513,-88.0778,2.307,17.41,1111122 
DISL,ioos:station:DISL:DISL:1,2016-07-02T15:00:00Z,30.2513,-88.0778,2.289,17.44,1111122 
DISL,ioos:station:DISL:DISL:1,2016-07-02T15:30:00Z,30.2513,-88.0778,2.276,17.44,1111122 
DISL,ioos:station:DISL:DISL:1,2016-07-02T16:00:00Z,30.2513,-88.0778,2.247,16.79,1111122 
DISL,ioos:station:DISL:DISL:1,2016-07-02T16:30:00Z,30.2513,-88.0778,2.225,16.95,1111122 
DISL,ioos:station:DISL:DISL:1,2016-07-02T17:00:00Z,30.2513,-88.0778,2.19,16.6,1111122 
DISL,ioos:station:DISL:DISL:1,2016-07-02T17:30:00Z,30.2513,-88.0778,2.159,16.76,1111122 
DISL,ioos:station:DISL:DISL:1,2016-07-02T18:00:00Z,30.2513,-88.0778,2.114,16.87,1111122 
DISL,ioos:station:DISL:DISL:1,2016-07-02T18:30:00Z,30.2513,-88.0778,2.069,16.82,1111122 
DISL,ioos:station:DISL:DISL:1,2016-07-02T19:00:00Z,30.2513,-88.0778,2.036,16.97,1111122 
DISL,ioos:station:DISL:DISL:1,2016-07-02T19:30:00Z,30.2513,-88.0778,1.995,19.46,1111122 
DISL,ioos:station:DISL:DISL:1,2016-07-02T20:00:00Z,30.2513,-88.0778,1.96,19.2,1111122 
DISL,ioos:station:DISL:DISL:1,2016-07-02T20:30:00Z,30.2513,-88.0778,1.921,19.67,1111122 
DISL,ioos:station:DISL:DISL:1,2016-07-02T21:00:00Z,30.2513,-88.0778,1.875,20.4,1111122 
DISL,ioos:station:DISL:DISL:1,2016-07-02T21:30:00Z,30.2513,-88.0778,1.864,20.05,1111122 
DISL,ioos:station:DISL:DISL:1,2016-07-02T22:00:00Z,30.2513,-88.0778,1.841,19.81,1111122 
DISL,ioos:station:DISL:DISL:1,2016-07-02T22:30:00Z,30.2513,-88.0778,1.816,19.14,1111122 
DISL,ioos:station:DISL:DISL:1,2016-07-02T23:00:00Z,30.2513,-88.0778,1.814,18.68,1111122 
DISL,ioos:station:DISL:DISL:1,2016-07-02T23:30:00Z,30.2513,-88.0778,1.776,18.46,1111122 
DISL,ioos:station:DISL:DISL:1,2016-07-03T00:00:00Z,30.2513,-88.0778,1.766,18.31,1111122 
DISL,ioos:station:DISL:DISL:1,2016-07-03T00:30:00Z,30.2513,-88.0778,1.76,18.54,1111122 
DISL,ioos:station:DISL:DISL:1,2016-07-03T01:00:00Z,30.2513,-88.0778,1.739,17.78,1111122 
DISL,ioos:station:DISL:DISL:1,2016-07-03T01:30:00Z,30.2513,-88.0778,1.75,18.42,1111122 
DISL,ioos:station:DISL:DISL:1,2016-07-03T02:00:00Z,30.2513,-88.0778,1.745,16.88,1111122 
DISL,ioos:station:DISL:DISL:1,2016-07-03T02:30:00Z,30.2513,-88.0778,1.753,18.55,1111122 
DISL,ioos:station:DISL:DISL:1,2016-07-03T03:00:00Z,30.2513,-88.0778,1.773,18.58,1111122 
DISL,ioos:station:DISL:DISL:1,2016-07-03T03:30:00Z,30.2513,-88.0778,1.773,20.57,1111122 
DISL,ioos:station:DISL:DISL:1,2016-07-03T04:00:00Z,30.2513,-88.0778,1.79,20.54,1111122 
DISL,ioos:station:DISL:DISL:1,2016-07-03T04:30:00Z,30.2513,-88.0778,1.803,20.69,1111122 
DISL,ioos:station:DISL:DISL:1,2016-07-03T05:00:00Z,30.2513,-88.0778,1.827,19.41,1111122 
DISL,ioos:station:DISL:DISL:1,2016-07-03T05:30:00Z,30.2513,-88.0778,1.856,18.34,1111122 
DISL,ioos:station:DISL:DISL:1,2016-07-03T06:00:00Z,30.2513,-88.0778,1.871,18.08,1111122 
DISL,ioos:station:DISL:DISL:1,2016-07-03T06:30:00Z,30.2513,-88.0778,1.895,18.11,1111122 
DISL,ioos:station:DISL:DISL:1,2016-07-03T07:00:00Z,30.2513,-88.0778,1.922,17.48,1111122 
DISL,ioos:station:DISL:DISL:1,2016-07-03T07:30:00Z,30.2513,-88.0778,1.951,18.16,1111122 
DISL,ioos:station:DISL:DISL:1,2016-07-03T08:00:00Z,30.2513,-88.0778,1.995,17.82,1111122 
DISL,ioos:station:DISL:DISL:1,2016-07-03T08:30:00Z,30.2513,-88.0778,2.019,17.07,1111122 
DISL,ioos:station:DISL:DISL:1,2016-07-03T09:00:00Z,30.2513,-88.0778,2.026,16.7,1111122 
DISL,ioos:station:DISL:DISL:1,2016-07-03T09:30:00Z,30.2513,-88.0778,2.078,16.2,1111122 
DISL,ioos:station:DISL:DISL:1,2016-07-03T10:00:00Z,30.2513,-88.0778,2.097,18.61,1111122 
DISL,ioos:station:DISL:DISL:1,2016-07-03T10:30:00Z,30.2513,-88.0778,2.132,20.25,1111122 
DISL,ioos:station:DISL:DISL:1,2016-07-03T11:00:00Z,30.2513,-88.0778,2.165,21.63,1111122 
DISL,ioos:station:DISL:DISL:1,2016-07-03T11:30:00Z,30.2513,-88.0778,2.2,22.21,1111122 
DISL,ioos:station:DISL:DISL:1,2016-07-03T12:00:00Z,30.2513,-88.0778,2.222,22.92,1111122 
DISL,ioos:station:DISL:DISL:1,2016-07-03T12:30:00Z,30.2513,-88.0778,2.245,20.89,1111122 
DISL,ioos:station:DISL:DISL:1,2016-07-03T13:00:00Z,30.2513,-88.0778,2.262,21.41,1111122 
DISL,ioos:station:DISL:DISL:1,2016-07-03T13:30:00Z,30.2513,-88.0778,2.284,20.21,1111122 
DISL,ioos:station:DISL:DISL:1,2016-07-03T14:00:00Z,30.2513,-88.0778,2.287,20.07,1111122 
DISL,ioos:station:DISL:DISL:1,2016-07-03T14:30:00Z,30.2513,-88.0778,2.298,19.38,1111122 
DISL,ioos:station:DISL:DISL:1,2016-07-03T15:00:00Z,30.2513,-88.0778,2.292,19.17,1111122 
DISL,ioos:station:DISL:DISL:1,2016-07-03T15:30:00Z,30.2513,-88.0778,2.284,17.01,1111122 
DISL,ioos:station:DISL:DISL:1,2016-07-03T16:00:00Z,30.2513,-88.0778,2.264,16.93,1111122 
DISL,ioos:station:DISL:DISL:1,2016-07-03T16:30:00Z,30.2513,-88.0778,2.265,16.93,1111122 
DISL,ioos:station:DISL:DISL:1,2016-07-03T17:00:00Z,30.2513,-88.0778,2.223,18.56,1111122 
DISL,ioos:station:DISL:DISL:1,2016-07-03T17:30:00Z,30.2513,-88.0778,2.195,18.0,1111122 
DISL,ioos:station:DISL:DISL:1,2016-07-03T18:00:00Z,30.2513,-88.0778,2.174,17.19,1111122 
DISL,ioos:station:DISL:DISL:1,2016-07-03T18:30:00Z,30.2513,-88.0778,2.134,17.73,1111122 
DISL,ioos:station:DISL:DISL:1,2016-07-03T19:00:00Z,30.2513,-88.0778,2.083,17.19,1111122 
DISL,ioos:station:DISL:DISL:1,2016-07-03T19:30:00Z,30.2513,-88.0778,2.05,17.16,1111122 
DISL,ioos:station:DISL:DISL:1,2016-07-03T20:00:00Z,30.2513,-88.0778,2.0,17.24,1111122 
DISL,ioos:station:DISL:DISL:1,2016-07-03T20:30:00Z,30.2513,-88.0778,1.967,17.38,1111122 
DISL,ioos:station:DISL:DISL:1,2016-07-03T21:00:00Z,30.2513,-88.0778,1.908,18.99,1111122 
DISL,ioos:station:DISL:DISL:1,2016-07-03T21:30:00Z,30.2513,-88.0778,1.885,20.21,1111122 
DISL,ioos:station:DISL:DISL:1,2016-07-03T22:00:00Z,30.2513,-88.0778,1.838,21.31,1111122 
DISL,ioos:station:DISL:DISL:1,2016-07-03T22:30:00Z,30.2513,-88.0778,1.82,21.96,1111122 
DISL,ioos:station:DISL:DISL:1,2016-07-03T23:00:00Z,30.2513,-88.0778,1.815,22.37,1111122 
DISL,ioos:station:DISL:DISL:1,2016-07-03T23:30:00Z,30.2513,-88.0778,1.786,22.78,1111122 
DISL,ioos:station:DISL:DISL:1,2016-07-04T00:00:00Z,30.2513,-88.0778,1.754,23.32,1111122 
DISL,ioos:station:DISL:DISL:1,2016-07-04T00:30:00Z,30.2513,-88.0778,1.767,22.45,1111122 
DISL,ioos:station:DISL:DISL:1,2016-07-04T01:00:00Z,30.2513,-88.0778,1.738,22.73,1111122 
DISL,ioos:station:DISL:DISL:1,2016-07-04T01:30:00Z,30.2513,-88.0778,1.733,22.15,1111122 
DISL,ioos:station:DISL:DISL:1,2016-07-04T02:00:00Z,30.2513,-88.0778,1.716,21.98,1111122 
DISL,ioos:station:DISL:DISL:1,2016-07-04T02:30:00Z,30.2513,-88.0778,1.719,23.1,1111122 
DISL,ioos:station:DISL:DISL:1,2016-07-04T03:00:00Z,30.2513,-88.0778,1.712,22.15,1111122 
DISL,ioos:station:DISL:DISL:1,2016-07-04T03:30:00Z,30.2513,-88.0778,1.732,22.88,1111122 
DISL,ioos:station:DISL:DISL:1,2016-07-04T04:00:00Z,30.2513,-88.0778,1.73,22.62,1111122 
DISL,ioos:station:DISL:DISL:1,2016-07-04T04:30:00Z,30.2513,-88.0778,1.756,22.31,1111122 
DISL,ioos:station:DISL:DISL:1,2016-07-04T05:00:00Z,30.2513,-88.0778,1.762,22.44,1111122 
DISL,ioos:station:DISL:DISL:1,2016-07-04T05:30:00Z,30.2513,-88.0778,1.735,22.59,1111122 
DISL,ioos:station:DISL:DISL:1,2016-07-04T06:00:00Z,30.2513,-88.0778,1.796,21.26,1111122 
DISL,ioos:station:DISL:DISL:1,2016-07-04T06:30:00Z,30.2513,-88.0778,1.8,21.83,1111122 
DISL,ioos:station:DISL:DISL:1,2016-07-04T07:00:00Z,30.2513,-88.0778,1.831,19.23,1111122 
DISL,ioos:station:DISL:DISL:1,2016-07-04T07:30:00Z,30.2513,-88.0778,1.862,19.74,1111122 
DISL,ioos:station:DISL:DISL:1,2016-07-04T08:00:00Z,30.2513,-88.0778,1.891,19.33,1111122 
DISL,ioos:station:DISL:DISL:1,2016-07-04T08:30:00Z,30.2513,-88.0778,1.927,19.08,1111122 
DISL,ioos:station:DISL:DISL:1,2016-07-04T09:00:00Z,30.2513,-88.0778,1.951,19.09,1111122 
DISL,ioos:station:DISL:DISL:1,2016-07-04T09:30:00Z,30.2513,-88.0778,1.987,19.15,1111122 
DISL,ioos:station:DISL:DISL:1,2016-07-04T10:00:00Z,30.2513,-88.0778,2.019,18.48,1111122 
DISL,ioos:station:DISL:DISL:1,2016-07-04T10:30:00Z,30.2513,-88.0778,2.044,19.38,1111122 
DISL,ioos:station:DISL:DISL:1,2016-07-04T11:00:00Z,30.2513,-88.0778,2.086,19.68,1111122 
DISL,ioos:station:DISL:DISL:1,2016-07-04T11:30:00Z,30.2513,-88.0778,2.099,21.07,1111122 
DISL,ioos:station:DISL:DISL:1,2016-07-04T12:00:00Z,30.2513,-88.0778,2.138,21.63,1111122 
DISL,ioos:station:DISL:DISL:1,2016-07-04T12:30:00Z,30.2513,-88.0778,2.17,21.36,1111122 
DISL,ioos:station:DISL:DISL:1,2016-07-04T13:00:00Z,30.2513,-88.0778,2.194,20.32,1111122 
DISL,ioos:station:DISL:DISL:1,2016-07-04T13:30:00Z,30.2513,-88.0778,2.215,20.39,1111122 
DISL,ioos:station:DISL:DISL:1,2016-07-04T14:00:00Z,30.2513,-88.0778,2.238,20.14,1111122 
DISL,ioos:station:DISL:DISL:1,2016-07-04T14:30:00Z,30.2513,-88.0778,2.23,20.02,1111122 
DISL,ioos:station:DISL:DISL:1,2016-07-04T15:00:00Z,30.2513,-88.0778,2.254,19.95,1111122 
DISL,ioos:station:DISL:DISL:1,2016-07-04T15:30:00Z,30.2513,-88.0778,2.247,20.24,1111122 
DISL,ioos:station:DISL:DISL:1,2016-07-04T16:00:00Z,30.2513,-88.0778,2.263,20.43,1111122 
DISL,ioos:station:DISL:DISL:1,2016-07-04T16:30:00Z,30.2513,-88.0778,2.237,20.4,1111122 
DISL,ioos:station:DISL:DISL:1,2016-07-04T17:00:00Z,30.2513,-88.0778,2.221,20.46,1111122 
DISL,ioos:station:DISL:DISL:1,2016-07-04T17:30:00Z,30.2513,-88.0778,2.226,21.21,1111122 
DISL,ioos:station:DISL:DISL:1,2016-07-04T18:00:00Z,30.2513,-88.0778,2.187,20.28,1111122 
DISL,ioos:station:DISL:DISL:1,2016-07-04T18:30:00Z,30.2513,-88.0778,2.166,20.25,1111122 
DISL,ioos:station:DISL:DISL:1,2016-07-04T19:00:00Z,30.2513,-88.0778,2.125,20.28,1111122 
DISL,ioos:station:DISL:DISL:1,2016-07-04T19:30:00Z,30.2513,-88.0778,2.092,20.91,1111122 
DISL,ioos:station:DISL:DISL:1,2016-07-04T20:00:00Z,30.2513,-88.0778,2.047,20.98,1111122 
DISL,ioos:station:DISL:DISL:1,2016-07-04T20:30:00Z,30.2513,-88.0778,2.014,21.66,1111122 
DISL,ioos:station:DISL:DISL:1,2016-07-04T21:00:00Z,30.2513,-88.0778,1.972,22.57,1111122 
DISL,ioos:station:DISL:DISL:1,2016-07-04T21:30:00Z,30.2513,-88.0778,1.954,23.01,1111122 
DISL,ioos:station:DISL:DISL:1,2016-07-04T22:00:00Z,30.2513,-88.0778,1.941,23.03,1111122 
DISL,ioos:station:DISL:DISL:1,2016-07-04T22:30:00Z,30.2513,-88.0778,1.9,23.62,1111122 
DISL,ioos:station:DISL:DISL:1,2016-07-04T23:00:00Z,30.2513,-88.0778,1.851,23.38,1111122 
DISL,ioos:station:DISL:DISL:1,2016-07-04T23:30:00Z,30.2513,-88.0778,1.827,23.32,1111122 
DISL,ioos:station:DISL:DISL:1,2016-07-05T00:00:00Z,30.2513,-88.0778,1.805,23.96,1111122 
DISL,ioos:station:DISL:DISL:1,2016-07-05T00:30:00Z,30.2513,-88.0778,1.776,23.89,1111122 
DISL,ioos:station:DISL:DISL:1,2016-07-05T01:00:00Z,30.2513,-88.0778,1.76,23.82,1111122 
DISL,ioos:station:DISL:DISL:1,2016-07-05T01:30:00Z,30.2513,-88.0778,1.746,22.96,1111122 
DISL,ioos:station:DISL:DISL:1,2016-07-05T02:00:00Z,30.2513,-88.0778,1.72,24.01,1111122 
DISL,ioos:station:DISL:DISL:1,2016-07-05T02:30:00Z,30.2513,-88.0778,1.711,22.68,1111122 
DISL,ioos:station:DISL:DISL:1,2016-07-05T03:00:00Z,30.2513,-88.0778,1.708,22.22,1111122 
DISL,ioos:station:DISL:DISL:1,2016-07-05T03:30:00Z,30.2513,-88.0778,1.728,21.86,1111122 
DISL,ioos:station:DISL:DISL:1,2016-07-05T04:00:00Z,30.2513,-88.0778,1.733,23.21,1111122 
DISL,ioos:station:DISL:DISL:1,2016-07-05T04:30:00Z,30.2513,-88.0778,1.75,23.77,1111122 
DISL,ioos:station:DISL:DISL:1,2016-07-05T05:00:00Z,30.2513,-88.0778,1.736,24.23,1111122 
DISL,ioos:station:DISL:DISL:1,2016-07-05T05:30:00Z,30.2513,-88.0778,1.767,24.2,1111122 
DISL,ioos:station:DISL:DISL:1,2016-07-05T06:00:00Z,30.2513,-88.0778,1.778,23.82,1111122 
DISL,ioos:station:DISL:DISL:1,2016-07-05T06:30:00Z,30.2513,-88.0778,1.787,23.37,1111122 
DISL,ioos:station:DISL:DISL:1,2016-07-05T07:00:00Z,30.2513,-88.0778,1.797,22.83,1111122 
DISL,ioos:station:DISL:DISL:1,2016-07-05T07:30:00Z,30.2513,-88.0778,1.811,22.47,1111122 
DISL,ioos:station:DISL:DISL:1,2016-07-05T08:00:00Z,30.2513,-88.0778,1.851,22.56,1111122 
DISL,ioos:station:DISL:DISL:1,2016-07-05T08:30:00Z,30.2513,-88.0778,1.854,22.0,1111122 
DISL,ioos:station:DISL:DISL:1,2016-07-05T09:00:00Z,30.2513,-88.0778,1.874,21.04,1111122 
DISL,ioos:station:DISL:DISL:1,2016-07-05T09:30:00Z,30.2513,-88.0778,1.914,21.31,1111122 
DISL,ioos:station:DISL:DISL:1,2016-07-05T10:00:00Z,30.2513,-88.0778,1.947,21.05,1111122 
DISL,ioos:station:DISL:DISL:1,2016-07-05T10:30:00Z,30.2513,-88.0778,1.953,22.46,1111122 
DISL,ioos:station:DISL:DISL:1,2016-07-05T11:00:00Z,30.2513,-88.0778,1.994,22.54,1111122 
DISL,ioos:station:DISL:DISL:1,2016-07-05T11:30:00Z,30.2513,-88.0778,2.012,24.02,1111122 
DISL,ioos:station:DISL:DISL:1,2016-07-05T12:00:00Z,30.2513,-88.0778,2.05,23.11,1111122 
DISL,ioos:station:DISL:DISL:1,2016-07-05T12:30:00Z,30.2513,-88.0778,2.102,23.66,1111122 
DISL,ioos:station:DISL:DISL:1,2016-07-05T13:00:00Z,30.2513,-88.0778,2.127,23.33,1111122 
DISL,ioos:station:DISL:DISL:1,2016-07-05T13:30:00Z,30.2513,-88.0778,2.146,22.4,1111122 
DISL,ioos:station:DISL:DISL:1,2016-07-05T14:00:00Z,30.2513,-88.0778,2.165,21.41,1111122 
DISL,ioos:station:DISL:DISL:1,2016-07-05T14:30:00Z,30.2513,-88.0778,2.18,20.91,1111122 
DISL,ioos:station:DISL:DISL:1,2016-07-05T15:00:00Z,30.2513,-88.0778,2.197,21.81,1111122 
DISL,ioos:station:DISL:DISL:1,2016-07-05T15:30:00Z,30.2513,-88.0778,2.217,21.35,1111122 
DISL,ioos:station:DISL:DISL:1,2016-07-05T16:00:00Z,30.2513,-88.0778,2.22,21.11,1111122 
DISL,ioos:station:DISL:DISL:1,2016-07-05T16:30:00Z,30.2513,-88.0778,2.216,21.33,1111122 
DISL,ioos:station:DISL:DISL:1,2016-07-05T17:00:00Z,30.2513,-88.0778,2.209,21.25,1111122 
DISL,ioos:station:DISL:DISL:1,2016-07-05T17:30:00Z,30.2513,-88.0778,2.182,21.8,1111122 
DISL,ioos:station:DISL:DISL:1,2016-07-05T18:00:00Z,30.2513,-88.0778,2.177,21.86,1111122 
DISL,ioos:station:DISL:DISL:1,2016-07-05T18:30:00Z,30.2513,-88.0778,2.156,21.7,1111122 
DISL,ioos:station:DISL:DISL:1,2016-07-05T19:00:00Z,30.2513,-88.0778,2.147,24.94,1111122 
DISL,ioos:station:DISL:DISL:1,2016-07-05T19:30:00Z,30.2513,-88.0778,2.15,23.42,1111122 
DISL,ioos:station:DISL:DISL:1,2016-07-05T20:00:00Z,30.2513,-88.0778,2.087,21.93,1111122 
DISL,ioos:station:DISL:DISL:1,2016-07-05T20:30:00Z,30.2513,-88.0778,2.044,21.64,1111122 
DISL,ioos:station:DISL:DISL:1,2016-07-05T21:00:00Z,30.2513,-88.0778,1.999,21.71,1111122 
DISL,ioos:station:DISL:DISL:1,2016-07-05T21:30:00Z,30.2513,-88.0778,1.965,22.0,1111122 
DISL,ioos:station:DISL:DISL:1,2016-07-05T22:00:00Z,30.2513,-88.0778,1.932,23.3,1111122 
DISL,ioos:station:DISL:DISL:1,2016-07-05T22:30:00Z,30.2513,-88.0778,1.909,24.32,1111122 
DISL,ioos:station:DISL:DISL:1,2016-07-05T23:00:00Z,30.2513,-88.0778,1.892,23.56,1111122 
DISL,ioos:station:DISL:DISL:1,2016-07-05T23:30:00Z,30.2513,-88.0778,1.86,23.94,1111122 
DISL,ioos:station:DISL:DISL:1,2016-07-06T00:00:00Z,30.2513,-88.0778,1.824,23.85,1111122 
DISL,ioos:station:DISL:DISL:1,2016-07-06T00:30:00Z,30.2513,-88.0778,1.798,23.83,1111122 
DISL,ioos:station:DISL:DISL:1,2016-07-06T01:00:00Z,30.2513,-88.0778,1.776,23.76,1111122 
DISL,ioos:station:DISL:DISL:1,2016-07-06T01:30:00Z,30.2513,-88.0778,1.74,23.82,1111122 
DISL,ioos:station:DISL:DISL:1,2016-07-06T02:00:00Z,30.2513,-88.0778,1.722,23.32,1111122 
DISL,ioos:station:DISL:DISL:1,2016-07-06T02:30:00Z,30.2513,-88.0778,1.704,23.57,1111122 
DISL,ioos:station:DISL:DISL:1,2016-07-06T03:00:00Z,30.2513,-88.0778,1.7,23.63,1111122 
DISL,ioos:station:DISL:DISL:1,2016-07-06T03:30:00Z,30.2513,-88.0778,1.708,23.6,1111122 
DISL,ioos:station:DISL:DISL:1,2016-07-06T04:00:00Z,30.2513,-88.0778,1.719,23.52,1111122 
DISL,ioos:station:DISL:DISL:1,2016-07-06T04:30:00Z,30.2513,-88.0778,1.735,23.25,1111122 
DISL,ioos:station:DISL:DISL:1,2016-07-06T05:00:00Z,30.2513,-88.0778,1.723,23.71,1111122 
DISL,ioos:station:DISL:DISL:1,2016-07-06T05:30:00Z,30.2513,-88.0778,1.744,23.91,1111122 
DISL,ioos:station:DISL:DISL:1,2016-07-06T06:00:00Z,30.2513,-88.0778,1.766,23.44,1111122 
DISL,ioos:station:DISL:DISL:1,2016-07-06T06:30:00Z,30.2513,-88.0778,1.777,22.37,1111122 
DISL,ioos:station:DISL:DISL:1,2016-07-06T07:00:00Z,30.2513,-88.0778,1.777,23.93,1111122 
DISL,ioos:station:DISL:DISL:1,2016-07-06T07:30:00Z,30.2513,-88.0778,1.809,23.99,1111122 
DISL,ioos:station:DISL:DISL:1,2016-07-06T08:00:00Z,30.2513,-88.0778,1.834,23.48,1111122 
DISL,ioos:station:DISL:DISL:1,2016-07-06T08:30:00Z,30.2513,-88.0778,1.834,23.5,1111122 
DISL,ioos:station:DISL:DISL:1,2016-07-06T09:00:00Z,30.2513,-88.0778,1.835,23.46,1111122 
DISL,ioos:station:DISL:DISL:1,2016-07-06T09:30:00Z,30.2513,-88.0778,1.86,22.82,1111122 
DISL,ioos:station:DISL:DISL:1,2016-07-06T10:00:00Z,30.2513,-88.0778,1.873,22.88,1111122 
DISL,ioos:station:DISL:DISL:1,2016-07-06T10:30:00Z,30.2513,-88.0778,1.896,22.62,1111122 
DISL,ioos:station:DISL:DISL:1,2016-07-06T11:00:00Z,30.2513,-88.0778,1.94,21.38,1111122 
DISL,ioos:station:DISL:DISL:1,2016-07-06T11:30:00Z,30.2513,-88.0778,1.962,22.61,1111122 
DISL,ioos:station:DISL:DISL:1,2016-07-06T12:00:00Z,30.2513,-88.0778,1.991,21.92,1111122 
DISL,ioos:station:DISL:DISL:1,2016-07-06T12:30:00Z,30.2513,-88.0778,2.023,22.31,1111122 
DISL,ioos:station:DISL:DISL:1,2016-07-06T13:00:00Z,30.2513,-88.0778,2.046,24.12,1111122 
DISL,ioos:station:DISL:DISL:1,2016-07-06T13:30:00Z,30.2513,-88.0778,2.073,23.08,1111122 
DISL,ioos:station:DISL:DISL:1,2016-07-06T14:00:00Z,30.2513,-88.0778,2.095,23.75,1111122 